STARLINK-5754 (55579 NORAD) Tracking and Keplerian Element Data

This shows tracking and keplerian element data for the satellite.

Feedback or suggestion? Click here.




ElementValue
Catalog55579
NameSTARLINK-5754
Epoch Orbit654
Epoch Day85.25001157
Epoch Year2023
RAAN110.0901
Inclination42.9966
Eccentricity0.0001246
Argument of Perigee264.4276
Mean Anonmoly59.5697
Mean Motion15.07199688
Decay Rate-0.01216017
L11 55579U 23020L 23085.25001157 -.01216017 00000+0 -86790-1 0 9997
L22 55579 42.9966 110.0901 0001246 264.4276 59.5697 15.07199688 6545



Live tracking and technical data element details for STARLINK-5754 (NORAD 55579). STARLINK-5754 can be tracked NOW for your location showing map with azimuth and elevation plus other details from your city location.







IsCatalogInMostPopularTable: catalog: 55579, numindb: -1

Insert: records affected: 1


GetName: 55579 STARLINK-5754

Hit Count: inserted at: Tue, 28 Mar 2023 03:09:30 GMT